FW4159 Weather Reports


Display with metric or nautical units.
time (UTC)temp
F
wind
direction
speed
MPH
gust
MPH
rain 1hr
in
rain 24hr
in
rain mn
in
humidity
%
barometer
mb
20191020012813 59 0.0 0.0 0.00 0.00 0.00 90 999.0
20191020011813 59 0.0 0.0 0.00 0.00 0.00 91 999.1
20191020005813 60 0.0 0.0 0.00 0.00 0.00 91 999.0
20191020004813 60 0.0 0.0 0.00 0.00 0.00 91 999.2
20191020003813 59 0.0 0.0 0.00 0.00 0.00 91 999.1
20191020002813 59 0.0 0.0 0.00 0.00 0.00 91 998.9
20191020000813 60 0.0 0.0 0.00 0.00 0.00 91 999.1
20191019235813 59 0.0 0.0 0.00 0.00 0.00 91 999.2
20191019233813 60 0.0 0.0 0.00 0.00 0.00 91 999.1
20191019225813 60 0.0 0.0 0.00 0.00 0.00 90 999.2
20191019224813 60 0.0 0.0 0.00 0.00 0.00 90 999.0
20191019221813 60 0.0 0.0 0.00 0.00 0.00 91 998.9
20191019215813 60 0.0 0.0 0.00 0.00 0.00 91 998.7
20191019214813 60 0.0 0.0 0.00 0.00 0.00 91 998.6
20191019213813 60 0.0 0.0 0.00 0.00 0.00 91 998.7
20191019211813 60 0.0 0.0 0.00 0.00 0.00 92 998.5
20191019202813 60 0.0 0.0 0.00 0.00 0.00 91 998.4
20191019200813 59 0.0 0.0 0.00 0.00 0.00 92 998.1
20191019195813 59 0.0 0.0 0.00 0.00 0.00 92 998.1
20191019194813 60 0.0 0.0 0.00 0.00 0.00 91 998.1
20191019192813 60 0.0 0.0 0.00 0.00 0.00 92 998.1
20191019184813 60 0.0 0.0 0.00 0.00 0.00 91 997.6
20191019183813 60 0.0 0.0 0.00 0.00 0.00 91 997.5
20191019182813 60 0.0 0.0 0.00 0.00 0.00 91 997.4
20191019175813 60 0.0 0.0 0.00 0.00 0.00 91 997.3
20191019174812 60 0.0 0.0 0.00 0.00 0.00 91 997.3
20191019171813 60 0.0 0.0 0.00 0.00 0.00 90 997.2
20191019165813 60 0.0 0.0 0.00 0.00 0.00 89 997.0
20191019162813 61 0.0 0.0 0.00 0.00 0.00 89 997.1
20191019161813 61 0.0 0.0 0.00 0.00 0.00 89 996.9
20191019160813 61 0.0 0.0 0.00 0.00 0.00 91 996.8
20191019153813 62 0.0 0.0 0.00 0.00 0.00 92 996.8
20191019152813 62 0.0 0.0 0.00 0.00 0.00 91 996.7
20191019150813 62 0.0 0.0 0.00 0.00 0.00 91 996.4
20191019141813 62 0.0 0.0 0.00 0.00 0.00 89 996.4
20191019140813 62 0.0 0.0 0.00 0.00 0.00 90 996.3
20191019135813 62 0.0 0.0 0.00 0.00 0.00 89 996.3
20191019134813 62 0.0 0.0 0.00 0.00 0.00 89 996.3
20191019133813 62 0.0 0.0 0.00 0.00 0.00 89 996.3
20191019132813 62 0.0 0.0 0.00 0.00 0.00 89 996.5
20191019131813 63 0.0 0.0 0.00 0.00 0.00 88 996.3
20191019130813 63 0.0 0.0 0.00 0.00 0.00 85 996.1
20191019125813 63 0.0 0.0 0.00 0.00 0.00 86 996.1
20191019124813 62 0.0 0.0 0.00 0.00 0.00 86 996.0
20191019123813 64 0.0 0.0 0.00 0.00 0.00 83 996.0
20191019121812 63 0.0 0.0 0.00 0.00 0.00 82 995.9
20191019120812 64 0.0 0.0 0.00 0.00 0.00 80 996.1
20191019115813 63 0.0 0.0 0.00 0.00 0.00 82 996.0
20191019113812 64 0.0 0.0 0.00 0.00 0.00 81 995.9
20191019112813 62 0.0 0.0 0.00 0.00 0.00 84 996.1
20191019105813 63 0.0 0.0 0.00 0.00 0.00 79 996.1
20191019104812 64 0.0 0.0 0.00 0.00 0.00 80 996.2
20191019103813 63 0.0 0.0 0.00 0.00 0.00 82 996.3
20191019100813 61 0.0 0.0 0.00 0.00 0.00 87 996.6
20191019095813 62 0.0 0.0 0.00 0.00 0.00 86 996.6
20191019092814 60 0.0 0.0 0.00 0.00 0.00 91 996.5
20191019085813 60 0.0 0.0 0.00 0.00 0.00 88 996.7
20191019083812 60 0.0 0.0 0.00 0.00 0.00 89 996.6
20191019081813 59 0.0 0.0 0.00 0.00 0.00 88 996.8
20191019075812 59 0.0 0.0 0.00 0.00 0.00 88 996.6
20191019074813 59 0.0 0.0 0.00 0.00 0.00 86 996.6
20191019073812 60 0.0 0.0 0.00 0.00 0.00 84 996.6
20191019071813 59 0.0 0.0 0.00 0.00 0.00 80 996.7
20191019065812 60 0.0 0.0 0.00 0.00 0.00 79 996.6
20191019064812 60 0.0 0.0 0.00 0.00 0.00 79 996.6
20191019063812 60 0.0 0.0 0.00 0.00 0.00 78 996.6
20191019060812 59 0.0 0.0 0.00 0.00 0.00 80 996.8
20191019055812 59 0.0 0.0 0.00 0.00 0.00 81 996.8
20191019054812 59 0.0 0.0 0.00 0.00 0.00 80 996.9
20191019053812 59 0.0 0.0 0.00 0.00 0.00 80 997.0
20191019051812 59 0.0 0.0 0.00 0.00 0.00 79 997.0
20191019045812 59 0.0 0.0 0.00 0.00 0.00 80 997.2
20191019043812 59 0.0 0.0 0.00 0.00 0.00 76 997.3
20191019041812 58 0.0 0.0 0.00 0.00 0.00 77 997.4
20191019040812 59 0.0 0.0 0.00 0.00 0.00 75 997.4
20191019035812 59 0.0 0.0 0.00 0.00 0.00 76 997.3
20191019034812 59 0.0 0.0 0.00 0.00 0.00 75 997.5
20191019033813 59 0.0 0.0 0.00 0.00 0.00 76 997.7
20191019032812 59 0.0 0.0 0.00 0.00 0.00 76 997.7
20191019031812 58 0.0 0.0 0.00 0.00 0.00 76 997.9
20191019030812 59 0.0 0.0 0.00 0.00 0.00 75 997.9
20191019025812 59 0.0 0.0 0.00 0.00 0.00 76 998.0
20191019024812 59 0.0 0.0 0.00 0.00 0.00 75 998.1
20191019022812 59 0.0 0.0 0.00 0.00 0.00 75 998.1
20191019021812 58 0.0 0.0 0.00 0.00 0.00 75 997.9
20191019014812 58 0.0 0.0 0.00 0.00 0.00 73 998.0